Location: The Saddle
(36.8333°N, 80.3417°W)
Time: 08:09:51
(UTC-04:00)

A-11 Canister half - Pass Details

Date: 04 June 2024
Orbit: 1515 x 1685 km, 47.2° (Epoch: 17 June)

Event Time Altitude Azimuth Distance (km) Brightness Sun altitude
Rises 04:15:27 0° 296° (WNW) 4,774 11.4 -17.7°
Reaches altitude 10° 04:18:43 10° 301° (WNW) 3,765 10.9 -17.2°
Maximum altitude 04:27:57 53° 17° (NNE) 1,831 9.7 -15.9°
Drops below altitude 10° 04:36:56 10° 93° (E) 3,674 11.6 -14.6°
Sets 04:40:05 0° 98° (E) 4,651 12.1 -14.2°
